Zurück zum Katalog

AURORA 2 R/B

PAM-D

AktivGTO
NORAD 21394·ROCKET BODY·🇺🇸 United States

Gestartet May 29, 1991 von Cape Canaveral Space Force Station

Loading…

TLE

AlterndSource: Space-Track

Epoche: Sep 14, 2026, 08:50 UTC

1 21394U 91037C   26257.36845156 -.00000197  00000-0  00000-0 0  9997
2 21394  24.1914  13.8608 6844896 352.5453   4.5840  2.22008218286394

Verfolge AURORA 2 R/B in Echtzeit mit AllMySat

Download on the App Store